Home > Weather > Valdivia > Past weeks

Flag for Chile Weather for the Past 2 Weeks in Valdivia, Chile

Now
57 °F

Drizzle. Low clouds.


Feels Like: 55 °F
Forecast: 51 / 65 °F
Wind: 9 mph from North

Location: Puerto Montt Airport

Current Time: Feb 14, 2016 at 12:21:58 PM

Latest Report: Feb 14, 2016 at 12:00 PM


Visibility: N/A

Pressure: 30.04 "Hg

Humidity: 94%

Dew point: 55 °F

Location of ValdiviaLocation

Historic Weather in Valdivia — Graph

°F

Valdivia Temperature Yesterday

Maximum temperature yesterday: 64 °F (at 4:00 PM)
Minimum temperature yesterday: 50 °F (at 3:00 AM)
Average temperature yesterday: 56 °F

High & Low Weather Summary for the Past Weeks

 TemperatureHumidityPressure
High81 °F (Feb 5, 2:00 PM)100% (Feb 2, 6:00 AM)30.18 "Hg (Feb 2, 6:00 AM)
Low45 °F (Feb 5, 3:00 AM)34% (Feb 5, 3:00 PM)29.74 "Hg (Feb 12, 10:00 AM)
Average60 °F74%30.01 "Hg
* Reported Jan 30 11:00 AM — Feb 14 11:00 AM, Valdivia, Weather by CustomWeather, © 2016

Note: Actual official high and low records may vary slightly from our data, if they occured in-between our weather recording intervals... More about our weather records

Advertising

Valdivia Weather History for the Previous 24 Hours

 ConditionsComfort  
Time TempWeatherWind HumidityBarometerVisibility
11:00 AM
Sun, Feb 14
55 °FDrizzle. Overcast.10 mph94%30.04 "Hg1 mi
10:00 AM55 °FDrizzle. Low clouds.10 mph94%30.04 "Hg1 mi
9:00 AM54 °FDrizzle. Overcast.9 mph100%30.04 "Hg2 mi
8:00 AM55 °FDrizzle. Overcast.7 mph88%30.04 "Hg3 mi
7:00 AM55 °FOvercast.6 mph88%30.01 "HgN/A
6:00 AM55 °FOvercast.6 mph88%30.01 "HgN/A
5:00 AM55 °FCool.6 mph88%30.01 "HgN/A
4:00 AM55 °FPassing clouds.6 mph88%30.04 "HgN/A
3:00 AM55 °FPassing clouds.6 mph88%30.04 "HgN/A
2:00 AM55 °FPassing clouds.6 mph88%30.07 "HgN/A
1:00 AM54 °FPassing clouds.5 mph88%30.07 "HgN/A
12:00 AM54 °FPassing clouds.5 mph88%30.09 "HgN/A
11:00 PM
Sat, Feb 13
54 °FPassing clouds.3 mph88%30.09 "HgN/A
10:00 PM57 °FPassing clouds.1 mph82%30.09 "HgN/A
9:00 PM57 °FPassing clouds.5 mph77%30.07 "HgN/A
8:00 PM57 °FPartly sunny.3 mph77%30.07 "HgN/A
7:00 PM63 °FBroken clouds.8 mph56%30.07 "HgN/A
6:00 PM64 °FBroken clouds.9 mph52%30.04 "HgN/A
5:00 PM63 °FBroken clouds.9 mph56%30.07 "HgN/A
4:00 PM64 °FBroken clouds.9 mph52%30.07 "HgN/A
3:00 PM63 °FBroken clouds.12 mph56%30.07 "HgN/A
2:00 PM63 °FBroken clouds.3 mph64%30.07 "HgN/A
1:00 PM63 °FBroken clouds.6 mph64%30.07 "HgN/A
12:00 PM59 °FBroken clouds.6 mph77%30.07 "HgN/A
Weather by CustomWeather, © 2016

See weather overviewHow to use our weather pages